Regional Weather Roundup
Issued by NWS Little Rock, AR

Home | Current Version | Previous Version | Text Only | Print | Product List | Glossary On
Versions: 1 2 3 4 5 6 7 8 9 10 11 12 13 14 15 16 17 18 19 20 21 22 23 24 25 26 27 28 29 30 31
000
ASUS44 KLZK 180705
RWRLZK

WEATHER ROUNDUP FOR ARKANSAS
NATIONAL WEATHER SERVICE LITTLE ROCK AR
100 AM CST SUN FEB 18 2018

NOTE: "FAIR" INDICATES FEW OR NO CLOUDS BELOW 12,000 FEET WITH NO
SIGNIFICANT WEATHER AND/OR OBSTRUCTIONS TO VISIBILITY.

ARZ001-003-010-029-180800-
NORTHWEST ARKANSAS

CITY           SKY/WX    TMP DP  RH WIND       PRES   REMARKS
FAYETTEVILLE   FOG       29  29 100 CALM      30.23S VSB 1/4
FORT SMITH     FOG       37  37 100 E5        30.22F VSB 1/4
HARRISON       CLOUDY    35  35 100 CALM      30.23S
HIGHFILL       PTCLDY    31  31 100 CALM      30.22S FOG
$$

ARZ004-005-016-180800-
NORTH CENTRAL ARKANSAS

CITY           SKY/WX    TMP DP  RH WIND       PRES   REMARKS
MTN HOME       FOG       31  31 100 CALM      30.24F VSB 3/4
$$

ARZ040-041-180800-
WEST CENTRAL ARKANSAS

CITY           SKY/WX    TMP DP  RH WIND       PRES   REMARKS
MENA           CLOUDY    34  34 100 CALM      30.22S VSB 3/4
MOUNT IDA      FOG       35  35 100 CALM      30.20S VSB 1/4
$$

ARZ009-017-025-026-028-180800-
NORTHEAST ARKANSAS

CITY           SKY/WX    TMP DP  RH WIND       PRES   REMARKS
JONESBORO      FAIR      34  34 100 CALM      30.27S FOG
NEWPORT        FOG       36  36 100 N5        30.28S VSB 1/4
BLYTHEVILLE    FOG       34  34 100 CALM      30.28R VSB 3/4
$$

ARZ022-023-033-042-044-180800-
CENTRAL ARKANSAS

CITY           SKY/WX    TMP DP  RH WIND       PRES   REMARKS
LITTLE ROCK    FOG       36  36 100 CALM      30.26S VSB 1/8
N LITTLE ROCK    N/A     41  40  98 N6        30.24S
JACKSONVILLE   FOG       33  33  99 CALM      30.25S VSB 1/2
SEARCY         FOG       34  34 100 CALM      30.27S VSB 3/4
HOT SPRINGS    FOG       37  37 100 CALM      30.24S VSB 1/4
RUSSELLVILLE   FOG       36  36 100 N3        30.25S VSB 1/4
CLINTON        FOG       32  32 100 CALM      30.28R VSB 1/4
$$

ARZ036-180800-
EAST ARKANSAS

CITY           SKY/WX    TMP DP  RH WIND       PRES   REMARKS
WEST MEMPHIS   FAIR      39  39 100 NE3       30.26S FOG
$$

ARZ050-053-066-070-073-180800-
SOUTHWEST ARKANSAS

CITY           SKY/WX    TMP DP  RH WIND       PRES   REMARKS
ARKADELPHIA    FOG       42  42 100 NE3       30.26R VSB 1/2
CAMDEN         MIX PCPN  41  39  93 CALM      30.24S VSB<1/4
TEXARKANA      CLOUDY    45  45 100 VRB3      30.21F FOG
EL DORADO      FAIR      46  46 100 NE3       30.23S
DE QUEEN       FOG       38  38 100 CALM      30.21S VSB 1/4
$$

ARZ056-057-069-180800-
SOUTHEAST ARKANSAS

CITY           SKY/WX    TMP DP  RH WIND       PRES   REMARKS
PINE BLUFF     FAIR      41  41 100 NE5       30.25S FOG
MONTICELLO     FAIR      42  41  96 NE6       30.23F FOG

$$






USA.gov is the U.S. government's official web portal to all federal, state and local government web resources and services.